Regional Weather Roundup
Issued by NWS Mobile, AL

Home | Current Version | Previous Version | Text Only | Print | Product List | Glossary Off
Versions: 1 2 3 4 5 6 7 8 9 10 11 12 13 14 15 16 17 18 19 20 21 22 23 24 25 26 27 28 29 30 31 32 33 34 35 36 37 38 39 40 41 42 43 44 45 46 47 48

000
ASUS44 KMOB 220910
RWRMOB
REGIONAL WEATHER ROUNDUP
NATIONAL WEATHER SERVICE MOBILE AL
400 AM CDT WED OCT 22 2014

NOTE: "FAIR" INDICATES FEW OR NO CLOUDS BELOW 12,000 FEET WITH NO
      SIGNIFICANT WEATHER AND/OR OBSTRUCTIONS TO VISIBILITY.

  * THESE STATIONS ARE PART OF THE UNIVERSITY OF SOUTH ALABAMA
    MESONET AND ARE NOT UNDER NWS OR FAA QUALITY CONTROL.

ALZ061>064-221000-
COASTAL ALABAMA

CITY           SKY/WX    TMP DP  RH WIND       PRES   REMARKS
MOBILE REG APT CLEAR     59  54  83 N8        30.03S
BROOKLEY FIELD CLEAR     54  54 100 NW6       30.04R
USA CAMPUS*      N/A     55  54  94 CALM      30.05R
DOG RIVER*     NOT AVBL


CITY           SKY/WX    TMP DP  RH WIND       PRES   REMARKS
MOUNT VERNON*    N/A     46  46 100 CALM      30.04S
SARALAND*      NOT AVBL
BAY MINETTE*   NOT AVBL
LOXLEY*          N/A     54  52  94 VRB3      30.03R
ROBERTSDALE*     N/A     55  54  94 CALM      30.02R
FAIRHOPE*        N/A     59  54  82 CALM      30.02R
ELBERTA*         N/A     54  54 100 CALM      30.01R
FOLEY*           N/A     52  50  93 CALM      30.00R
GRAND BAY*       N/A     52  52 100 CALM      30.01R
DAUPHIN ISLND* NOT AVBL
BON SCOUR NWR* NOT AVBL
GULF SHORES    CLEAR     53  52  96 CALM      30.02R

$$

ALZ051>060-221000-
INTERIOR SOUTHWEST AND SOUTH CENTRAL ALABAMA

CITY           SKY/WX    TMP DP  RH WIND       PRES   REMARKS
GREENVILLE     CLEAR     49  47  93 N5        30.03R
EVERGREEN      CLEAR     52  49  89 CALM      30.03S
CASTLEBERRY*   NOT AVBL
ATMORE*          N/A     54  52  94 N6        30.04S
DIXIE*           N/A     54  54 100 CALM      30.00S
ANDALUSIA/OPP  CLEAR     57  51  80 N3        30.02S
ANDALUSIA*       N/A     59  54  82 N5        30.01F
FLORALA APT    CLEAR     52  48  86 CALM      30.04R
FLORALA*         N/A     52  50  93 CALM      30.00R

$$

FLZ001>006-221000-
WESTERN FLORIDA PANHANDLE

CITY           SKY/WX    TMP DP  RH WIND       PRES   REMARKS
PENSACOLA      CLEAR     62  53  72 N7        30.01R
NAS PENSACOLA  CLEAR     57  54  89 N5        30.01R
MILTON         CLEAR     59  52  77 N5        30.01S
WHTNG S FIELD  CLEAR     61  53  75 N8        30.01S


CITY           SKY/WX    TMP DP  RH WIND       PRES   REMARKS
WALNUT HILL*   NOT AVBL
JAY*             N/A     55  52  88 N3        30.03S
DUKE FIELD     CLEAR     52  50  94 CALM      30.01S
CRESTVIEW      CLEAR     48  47  96 CALM      30.03R
VALPARAISO     CLEAR     57  53  84 N5        30.01R
DESTIN         CLEAR     65  56  72 N7        30.00S

$$

MSZ076-079-221000-
INTERIOR SOUTHEAST MISSISSIPPI

CITY           SKY/WX    TMP DP  RH WIND       PRES   REMARKS
LEAKESVILLE*     N/A     54  52  94 N3        30.04F
AGRICOLA*      NOT AVBL

$$

MARINE OBSERVATIONS

STATION/POSITION TIME  TEMP    WIND        PRES    WAVE
                       AIR SEA DIR/SP/G            HT/PER
                 (UTC) (F)     (DEG/KT/KT) (MB)    (FT/S)
PASCAGOULA       0900   62     350/  6/  7 1016.2F
PETIT BOIS ISLND 0900   69      40/ 10/ 12 1016.4S
GRAND BAY        0800   59      10/  5     1017.0S
E DAUPHIN ISLAND 0800   72      20/  9/ 10 1016.3S
USCG MOBILE BAY  0900   61 75  350/  5/  7 1015.5R
STATE DOCKS      0900   61 75              1016.6R
MEAHER PARK      0800   60     360/  3     1016.9R
WEEKS BAY        0800   55                   N/A
FORT MORGAN      0900   71      40/ 13/ 15 1015.7F
12 S ORANGE BCH  0900   74 78   20/ 12/ 14 1015.3R   1/ 3
PENSACOLA BAY    0900   65 75  350/  5/  7 1016.3R
64 S DAUPHIN ISL 0846   76 79   40/ 16/ 17 1015.3F   2/ 4
67 S FORT MORGAN 0800   75                 1014.6F

$$

SELECTED LOCATIONS ACROSS THE REGION

CITY           SKY/WX    TMP DP  RH WIND       PRES   REMARKS
NEW ORLEANS    PTCLDY    67  58  72 E5        30.02S
GULFPORT       CLEAR     56  53  90 N3        30.02S
PASCAGOULA AP  CLEAR     50  50 100 CALM      30.02S
PASCAGOULA*      N/A     57  55  94 VRB2      30.02S
HATTIESBURG    CLEAR     53  52  96 CALM      30.06S
LAUREL         CLEAR     54  48  82 N5        30.07S
MERIDIAN       FOG       47  45  93 CALM      30.07S VSB 1
JACKSON        CLEAR     51  49  92 CALM      30.08R
MONTGOMERY     FOG       50  48  93 CALM      30.05R VSB 3/4
TROY           CLEAR     46  45  96 CALM      30.03S
KINSTON*       NOT AVBL
GENEVA*          N/A     54  50  87 N2        30.04R
ASHFORD*         N/A     59  54  82 N5        30.01F
DOTHAN         CLEAR     55  51  86 CALM      30.04S
PANAMA CITY    CLEAR     56  52  86 NW3       29.99R

$$




USA.gov is the U.S. government's official web portal to all federal, state and local government web resources and services.